User: anonymous   Login
Location: Appleton
(44.2618°N, 88.4157°W)
Time: 19:52:58
(UTC+00:00)
Language:

Transit 4A - Orbit

View from above orbital plane
View from above orbital plane
View from above satellite
View from above satellite

Ground track
Ground track

The orbit data is extracted from the following two-line orbital elements,

1 00116U 61015A   21059.36870378 -.00000037  00000-0  30730-4 0  9998
2 00116  66.8101 302.5893 0076844 194.5298 165.3573 13.91784455 27432
Epoch (UTC): 28 February 2021 08:50:56
Eccentricity: 0.0076844
inclination: 66.8101°
perigee height: 866 km
apogee height: 978 km
right ascension of ascending node: 302.5893°
argument of perigee: 194.5298°
revolutions per day: 13.91784455
mean anomaly at epoch: 165.3573°
orbit number at epoch: 2743

The dashed part of the orbit path shows where the satellite is in the earth's shadow,  

DLR